RH
63 64 64 67 69 71 71 70 69 67 64 62 61 61 61 62 63 64 66 68 70 71 73 75 76 77 78 80 83 85 86 87 88 89 90 91 91 92 92 92 92 92 93 93 94 94 94 93 92 91 91 93 95 98 98 98 98 97 98 98 98 99 100 100 100 100 100 100 100 100 100 100 100 100 100 100 100 100 100 100 100 100 100 100 100 100
63 64 65 68 70 71 70 68 66 64 62 61 61 61 61 63 64 66 67 68 69 71 72 74 76 77 77 78 80 83 86 87 88 90 91 92 93 93 93 93 93 93 93 93 93 92 92 91 90 90 92 96 98 100 100 99 99 99 98 98 98 99 99 99 99 99 99 99 99 100 100 100 100 100 100 100 100 100 100 99 99 99 98 99 100 100
64 65 67 69 70 70 68 65 63 61 61 61 61 62 62 63 65 67 68 69 69 70 72 74 75 76 77 77 79 82 85 86 89 91 92 93 93 93 93 93 93 93 93 92 91 90 90 90 91 93 96 99 100 99 99 99 99 98 98 97 97 98 98 99 99 98 98 96 96 97 99 100 100 100 100 100 100 100 100 99 99 99 98 99 99 100
67 68 69 70 70 68 66 63 61 60 61 62 62 62 63 64 66 67 68 68 69 70 71 73 75 76 77 77 78 80 84 87 89 90 91 92 92 92 93 93 92 92 92 91 90 91 92 93 95 97 99 99 99 99 99 99 98 97 97 97 97 98 99 98 97 96 96 94 91 90 93 97 99 100 100 100 99 99 100 99 100 100 100 99 99 100
70 71 72 71 69 66 62 60 60 60 61 62 63 63 64 65 66 67 67 67 68 69 71 73 75 76 77 77 77 79 84 86 88 89 90 90 91 91 92 92 91 91 91 92 93 94 95 96 98 99 98 98 97 97 98 98 98 97 97 98 98 98 99 97 95 94 93 92 87 83 83 89 95 99 100 99 99 98 99 99 100 100 100 100 100 100
73 74 73 70 66 62 60 59 60 61 62 62 63 64 65 66 67 66 66 67 68 70 72 73 75 75 76 76 77 79 83 85 86 86 87 88 89 90 91 91 91 91 92 93 94 95 97 98 98 98 97 97 97 97 98 98 98 98 98 98 99 99 99 97 94 93 92 89 85 80 76 81 88 95 99 100 99 98 98 99 99 100 100 100 100 100
76 73 69 65 61 59 58 59 60 61 62 63 64 65 66 66 66 66 65 66 68 70 72 73 73 74 74 75 76 78 79 80 81 82 84 86 88 89 90 90 91 92 93 94 95 96 97 97 97 97 96 96 97 98 99 99 98 98 99 98 98 99 99 97 96 94 93 88 84 79 72 76 82 89 96 99 99 99 98 98 99 100 100 100 100 100
75 68 62 59 57 57 57 58 60 61 62 64 66 67 67 66 66 65 65 66 67 69 71 72 72 73 74 74 75 75 75 76 77 79 81 83 85 87 88 90 91 93 94 95 95 95 95 94 94 95 96 96 98 99 100 99 99 99 99 98 98 99 99 98 98 97 96 89 83 77 72 72 77 84 92 97 99 99 98 98 99 99 100 100 100 100
67 61 57 56 56 57 58 59 60 61 62 65 67 68 68 66 65 64 64 65 67 68 69 71 72 73 73 74 74 74 75 76 78 79 81 83 84 85 87 89 91 93 93 92 91 91 92 92 93 95 97 98 99 100 100 100 100 99 99 99 99 99 99 98 98 97 93 88 83 78 75 73 74 78 86 93 97 99 99 99 99 99 100 100 100 100
60 58 56 56 57 58 59 60 61 62 63 65 67 68 67 66 65 64 65 66 67 68 69 70 72 72 73 73 74 74 75 76 78 80 82 83 84 85 87 88 89 89 87 84 83 83 85 84 86 90 93 96 98 100 100 100 100 100 100 100 99 99 98 98 97 96 91 86 83 80 77 75 73 75 82 89 93 96 98 99 99 99 99 100 100 100
58 58 57 57 58 58 60 61 62 63 63 64 65 65 64 64 64 65 67 67 68 68 69 70 71 72 73 73 74 75 75 76 76 77 78 79 81 83 84 85 85 84 82 78 77 76 74 73 74 77 81 88 94 98 100 100 100 100 100 100 99 98 97 98 98 96 93 90 86 83 80 76 74 74 78 85 90 93 96 97 98 98 99 99 100 100
59 59 59 59 60 60 60 61 62 62 62 63 63 63 62 63 65 67 69 69 70 70 70 70 71 71 72 73 74 75 74 75 75 75 74 75 76 78 79 80 80 79 78 76 73 70 67 67 68 69 72 79 86 94 100 100 100 100 100 100 99 99 98 98 98 97 96 95 92 88 84 79 75 74 76 81 86 89 92 94 95 96 98 99 99 99
61 62 62 62 62 61 61 61 61 61 61 62 63 64 65 65 67 69 71 71 70 70 70 70 70 71 72 72 72 72 72 72 72 73 73 75 76 77 79 80 80 80 79 76 71 68 65 65 66 68 70 74 81 89 96 99 99 99 99 100 100 99 99 99 98 98 98 98 97 94 91 84 77 74 75 79 82 85 88 89 92 94 96 98 99 99
66 67 66 65 63 62 61 62 62 62 63 63 65 66 67 68 69 70 71 70 69 69 69 70 70 70 70 70 69 69 69 69 70 72 74 76 77 78 80 82 82 81 80 77 73 69 65 68 70 70 70 72 76 80 87 91 94 97 99 100 100 100 100 99 99 99 99 99 98 98 96 89 82 76 75 77 80 83 84 85 87 90 93 96 98 98
73 72 70 68 66 64 63 63 64 64 65 65 66 68 68 70 70 70 70 70 69 69 70 70 70 69 68 67 67 67 67 68 70 73 75 77 79 80 82 82 82 81 79 78 75 71 67 71 74 75 76 76 79 83 89 94 97 99 100 100 100 100 100 100 100 99 99 99 99 99 99 93 85 78 75 77 79 80 81 82 82 84 87 93 96 97
77 76 74 71 68 66 65 65 66 66 66 67 68 69 69 70 70 70 70 70 71 71 71 71 69 68 66 65 65 66 66 68 71 74 76 78 80 81 81 81 81 79 78 77 75 73 71 76 82 87 89 90 93 96 98 99 99 100 99 100 100 100 100 100 100 100 99 99 99 99 98 92 85 78 76 77 78 78 79 80 79 79 81 87 92 95
79 77 76 74 71 68 67 67 67 68 68 69 70 70 71 72 72 73 73 73 73 72 71 70 70 69 66 65 64 65 66 69 73 76 78 79 80 80 80 79 79 78 77 76 76 77 77 84 90 95 96 98 98 98 99 99 98 96 94 95 96 98 98 99 99 99 99 99 99 98 95 87 81 77 76 76 76 76 76 77 77 76 76 81 87 93
79 77 76 75 73 71 69 69 69 70 71 72 72 72 73 75 76 76 75 75 75 74 72 70 70 70 69 67 66 65 68 74 79 81 81 80 79 78 78 77 76 77 77 77 78 80 83 89 93 95 97 97 97 95 92 87 84 84 87 90 93 94 95 95 95 94 95 96 97 95 91 84 78 75 75 75 75 74 74 76 76 74 72 75 81 89
81 79 77 76 74 73 72 73 73 74 75 75 75 75 75 76 77 77 78 76 76 75 73 72 71 70 70 69 68 68 73 81 85 85 82 79 77 76 76 75 75 76 77 78 79 82 87 92 94 95 95 96 93 87 79 78 79 82 86 90 92 93 92 90 88 87 87 89 90 90 86 80 75 72 72 73 73 73 73 75 75 74 70 70 75 83
84 80 78 78 77 77 77 77 77 77 77 77 77 79 79 80 80 79 79 77 75 75 75 75 74 73 72 72 72 75 81 87 88 85 80 77 75 75 74 73 74 75 76 77 79 82 85 86 84 83 85 87 86 83 82 82 82 83 85 86 88 88 87 84 80 77 76 78 80 81 79 75 71 69 69 71 72 72 73 75 75 74 70 66 68 76
87 84 82 83 84 84 83 80 79 80 81 83 85 86 84 82 80 79 78 77 77 77 77 78 77 76 75 77 79 82 86 87 85 82 77 75 74 73 72 72 73 75 77 78 80 81 81 81 82 83 85 88 88 88 85 82 80 78 78 80 82 83 82 77 72 69 68 69 71 72 72 70 68 67 67 70 72 73 73 74 74 72 69 64 64 68
90 88 86 88 89 87 84 84 84 85 85 89 91 90 87 84 82 80 78 79 79 80 81 81 83 85 87 88 87 84 81 82 82 80 76 75 73 71 70 71 73 75 77 78 79 79 81 83 85 87 89 89 87 84 80 76 74 73 73 75 77 78 77 73 68 64 62 62 64 66 67 66 65 64 65 68 71 73 74 73 72 69 66 62 60 61
92 92 91 91 92 92 91 92 92 93 92 93 93 92 91 89 87 86 85 86 87 89 91 91 89 85 82 78 76 75 77 78 79 78 76 75 73 71 71 72 74 75 76 77 78 80 82 85 88 89 88 84 80 75 72 71 71 71 72 72 73 74 74 73 69 65 60 60 60 61 63 64 63 63 64 67 69 72 73 72 70 67 63 59 56 57
92 92 92 93 92 92 93 93 93 93 93 93 93 93 92 91 90 90 91 91 91 89 85 81 79 77 75 74 75 75 75 74 73 73 74 73 73 72 72 73 74 75 76 77 79 82 84 87 89 88 83 77 72 69 69 70 71 73 74 74 73 72 73 74 74 72 68 64 62 62 63 63 62 61 62 65 67 69 71 71 69 66 61 57 54 54
88 91 92 93 93 93 93 92 92 92 92 91 90 89 90 91 91 91 91 88 86 85 84 83 81 78 74 73 72 72 71 70 71 72 74 74 73 73 73 73 74 75 76 78 80 83 86 87 86 83 78 74 70 68 69 70 73 75 77 77 77 78 81 85 88 89 87 80 73 68 66 64 62 61 61 63 65 67 68 69 69 66 62 57 53 52
82 88 92 93 93 93 93 93 93 93 92 93 93 93 94 94 93 92 91 88 87 85 85 82 79 75 72 70 70 70 69 70 70 72 75 75 74 73 73 73 74 76 78 79 82 84 86 86 84 81 79 75 72 70 69 71 74 79 83 87 90 92 94 97 99 99 98 92 83 74 68 66 64 62 61 62 63 64 66 67 67 66 63 58 54 52
78 83 87 90 91 92 92 92 92 92 92 92 92 92 93 93 93 92 89 89 88 87 83 79 76 73 71 70 69 69 69 70 71 72 74 75 75 74 73 74 76 79 82 82 83 83 85 85 85 84 82 76 72 70 70 74 80 87 93 94 94 94 94 93 93 93 92 90 84 76 69 66 64 62 62 61 61 62 64 65 65 65 63 60 56 54
76 80 84 87 89 91 92 92 92 92 91 91 91 91 93 92 92 92 90 90 89 87 83 79 76 74 72 70 69 68 69 70 71 72 72 74 74 74 74 76 81 84 84 81 81 81 83 84 84 82 79 75 73 74 75 80 89 94 91 84 80 78 78 78 78 79 81 82 79 74 67 64 62 61 61 61 60 61 62 62 63 64 64 62 60 58
70 74 78 82 85 88 89 88 89 91 91 92 92 92 93 93 92 92 91 91 90 88 84 80 77 75 73 72 70 70 70 71 71 70 71 75 76 76 76 79 81 81 80 79 79 79 80 80 79 78 76 76 77 79 80 83 85 85 78 72 69 68 68 68 69 69 70 72 73 71 67 62 60 59 60 60 60 60 60 61 62 63 65 65 64 63
64 68 72 76 79 81 83 82 85 88 91 92 92 92 93 92 92 92 92 92 91 89 86 82 79 77 75 73 72 71 69 68 67 68 72 77 78 77 77 78 78 78 80 80 79 77 76 76 76 76 77 78 80 82 82 80 78 75 73 71 70 68 67 67 67 67 67 68 69 69 67 63 59 57 57 58 59 59 60 60 61 64 67 68 69 70
66 68 70 73 75 77 79 82 84 86 88 89 90 91 91 91 91 91 91 92 92 91 89 85 82 80 78 76 74 71 69 66 66 68 73 76 77 77 77 78 79 80 82 83 82 80 76 75 75 76 78 80 81 82 81 80 78 78 77 76 74 72 69 70 72 73 73 72 72 71 69 66 61 58 56 56 57 58 58 59 61 65 69 72 75 77
68 69 70 71 73 76 79 82 85 86 86 87 88 89 90 91 92 92 92 92 92 91 91 88 86 84 81 79 76 74 72 69 69 72 75 78 79 79 80 81 82 82 82 86 86 84 80 78 77 77 80 81 83 83 83 82 82 82 81 81 80 78 77 81 85 86 84 82 79 77 74 71 66 61 57 56 55 56 57 59 61 65 70 75 79 82
68 68 68 69 71 74 77 81 84 86 87 88 88 89 90 91 92 92 92 92 92 92 91 91 89 87 84 82 80 77 75 74 74 76 79 82 83 83 83 84 84 84 83 86 87 87 85 81 79 79 80 82 83 84 84 84 84 83 83 83 85 87 88 89 89 88 87 86 84 82 79 76 72 67 61 58 56 56 57 58 61 65 70 76 81 85
68 66 66 68 70 73 76 80 83 85 87 88 89 90 91 91 92 92 92 92 92 92 92 91 91 89 87 84 82 79 77 76 77 79 82 85 86 85 85 86 86 85 85 84 85 85 85 83 81 80 80 80 81 82 83 84 84 84 82 84 87 89 90 88 86 84 83 84 84 83 82 80 77 73 68 64 61 59 59 60 61 63 68 74 80 87
67 65 65 67 69 72 76 80 83 85 87 88 88 89 90 91 92 92 92 92 92 92 92 92 92 91 90 87 84 81 79 79 79 82 85 89 90 89 87 87 86 85 85 84 83 83 82 81 80 80 79 79 80 81 83 84 84 83 82 84 86 87 86 84 84 84 85 85 85 84 84 84 83 81 76 70 66 63 62 62 62 62 65 69 76 84
68 65 64 66 69 73 76 80 83 85 87 87 88 88 89 91 92 92 92 92 92 92 93 93 93 93 93 92 90 88 86 86 87 88 90 91 92 91 89 86 85 85 86 85 84 83 82 80 80 80 80 80 80 80 81 82 83 84 84 85 85 85 84 83 84 86 88 88 87 86 86 88 89 87 83 76 70 67 66 65 63 62 62 65 71 79
68 65 63 65 69 73 76 79 82 84 86 87 88 89 90 91 91 92 92 92 92 92 92 93 93 93 93 93 93 93 92 92 92 92 93 92 92 92 91 89 88 87 88 87 85 84 83 82 80 79 79 79 79 79 80 82 84 85 86 87 87 87 86 85 86 88 90 91 90 89 89 93 95 95 91 84 79 76 75 72 69 66 63 63 67 72
70 67 65 66 68 71 74 76 80 83 86 88 89 90 90 90 90 91 92 92 92 92 92 92 93 93 93 93 93 93 93 93 93 93 93 92 91 91 91 92 91 90 90 90 89 87 85 85 83 81 80 78 78 79 80 83 85 87 89 89 89 89 89 88 88 90 93 95 95 93 90 93 96 99 97 95 93 91 90 88 84 78 74 72 71 72
75 72 69 68 68 68 71 74 78 82 86 89 90 91 91 90 90 90 91 91 92 92 92 92 93 93 93 93 93 93 93 93 93 93 93 92 92 91 91 92 93 93 93 93 92 91 90 88 85 83 81 79 79 79 81 83 86 88 89 91 92 93 93 93 94 97 98 99 99 98 96 95 97 100 99 99 99 99 99 98 96 93 90 90 89 86
80 77 74 71 68 68 69 72 75 79 84 88 90 91 90 90 89 89 89 90 91 92 92 92 93 93 93 93 93 93 93 93 93 93 93 93 93 92 91 92 93 94 94 93 93 94 93 91 88 85 83 82 81 81 82 84 85 87 90 91 92 92 94 93 92 91 91 95 98 99 99 99 99 100 100 100 100 100 100 100 99 98 97 98 98 98
83 80 78 74 71 69 69 70 73 77 81 85 88 89 88 88 89 89 89 89 90 90 90 91 92 92 92 92 91 91 90 90 90 91 92 93 93 93 92 92 93 93 93 93 93 94 94 93 91 88 86 85 84 84 84 84 85 87 89 90 91 92 95 95 93 90 89 90 91 93 97 99 100 100 100 100 100 100 99 99 99 98 98 97 97 98
86 84 81 77 74 72 70 70 70 73 77 81 84 86 87 88 89 89 89 89 89 89 89 91 91 91 91 90 89 88 87 87 87 88 89 91 92 93 93 93 93 93 92 93 94 94 94 93 92 91 88 87 86 86 84 85 86 88 90 92 92 93 94 95 94 93 95 95 96 96 97 99 100 100 100 99 99 100 100 100 99 98 96 94 93 93
88 86 84 81 77 74 70 68 68 70 73 77 81 85 86 88 89 90 90 90 89 89 90 91 92 92 91 89 87 86 85 85 85 87 89 90 92 93 94 93 93 93 92 92 93 95 95 94 93 92 90 90 90 89 87 86 86 88 90 92 93 94 93 93 92 93 96 98 99 99 99 100 100 100 100 99 100 100 100 100 99 97 94 91 90 90
89 88 86 83 79 75 70 68 67 68 70 75 79 82 85 86 88 89 89 89 89 88 89 90 91 90 90 87 85 84 84 84 85 86 87 89 90 92 94 94 94 93 93 92 93 94 94 94 93 93 92 93 93 92 89 87 87 88 90 92 94 95 93 92 91 91 92 95 98 100 100 100 100 100 100 100 100 100 100 100 100 98 95 91 89 89
90 89 88 85 81 77 72 70 68 68 69 72 76 80 84 86 88 89 89 88 88 88 88 89 89 88 86 84 83 83 84 85 85 85 86 87 90 93 93 94 94 94 94 93 94 94 93 93 93 93 93 94 93 92 90 88 88 88 90 93 94 96 96 95 94 94 96 97 98 99 100 100 100 100 100 100 100 100 100 100 100 100 99 96 93 91
90 90 89 87 84 80 75 71 69 68 67 69 72 77 82 85 87 88 88 88 88 89 88 89 89 88 85 84 84 84 85 85 86 86 87 87 88 89 91 93 94 94 94 94 94 94 93 94 94 94 94 93 93 93 92 91 90 91 91 94 95 95 95 94 95 96 97 98 99 99 100 100 100 100 99 98 99 100 100 100 100 100 100 99 97 94
92 91 90 89 87 83 78 73 69 67 66 68 70 75 80 83 86 87 87 88 88 88 88 88 88 87 85 84 84 85 86 86 87 87 88 88 89 90 91 92 93 94 94 94 94 94 94 94 94 94 94 93 91 90 90 91 92 93 93 94 94 95 95 94 94 95 97 98 99 99 100 100 100 99 96 96 98 99 100 100 100 100 100 100 99 98
92 92 91 90 88 85 81 76 72 69 67 67 68 72 77 81 85 87 87 87 87 88 88 87 86 85 84 84 84 85 87 88 88 89 89 89 89 89 91 92 93 94 94 94 94 95 95 95 95 94 94 93 91 89 89 91 93 95 95 96 96 96 95 95 95 95 96 98 99 99 100 100 99 97 95 96 97 97 98 99 100 100 100 99 99 98
93 93 92 91 89 87 83 79 75 71 69 68 69 70 74 78 82 86 87 87 88 88 88 87 87 86 84 84 84 85 87 88 89 89 89 89 90 91 92 93 93 94 94 94 94 94 95 96 96 96 96 95 94 93 91 92 93 95 96 97 98 98 97 96 96 96 97 98 99 99 100 100 99 98 96 96 94 93 93 96 98 100 100 100 99 97
93 93 92 91 90 88 86 81 77 73 70 70 70 70 72 75 79 82 85 86 87 87 87 87 87 86 85 84 84 85 87 88 88 88 88 89 90 92 93 93 93 94 93 92 92 93 95 96 96 96 97 97 96 96 95 95 95 96 97 98 98 98 98 97 97 98 98 99 99 99 99 99 99 99 98 96 93 90 89 92 96 99 100 100 99 97
93 93 92 91 91 89 88 83 78 74 71 71 70 70 70 73 76 80 83 84 85 85 85 86 86 86 86 85 85 86 87 87 88 88 88 90 91 93 93 93 94 93 92 90 88 88 92 92 91 92 95 96 97 97 97 97 97 97 97 97 97 98 98 98 98 98 98 99 100 100 99 99 99 100 99 97 93 90 88 89 93 97 100 100 99 97
Wind_Speed
26 26 26 25 25 24 24 24 24 25 27 28 29 28 29 28 27 27 25 23 22 22 22 22 22 22 23 23 23 23 23 23 22 22 21 20 20 20 20 20 21 21 21 22 22 21 21 21 20 20 20 20 21 21 20 19 18 17 16 16 15 16 15 15 13 12 11 11 10 10 9 9 8 8 8 7 5 5 7 10 15 20 23 26 31 36
26 26 25 24 23 23 24 25 25 25 26 28 29 29 29 29 28 27 25 23 21 21 21 22 22 22 23 25 24 24 24 23 22 21 21 20 20 20 21 21 21 21 21 21 21 20 20 20 20 20 20 20 21 21 20 18 17 16 16 15 15 15 15 14 13 12 12 12 11 11 10 9 9 9 9 9 8 7 7 9 14 20 24 27 31 35
26 25 25 23 22 22 23 25 26 26 26 27 28 28 29 29 27 25 24 22 22 22 21 21 22 23 25 26 25 24 24 23 22 21 21 21 21 21 21 21 21 20 20 20 20 20 19 19 19 19 19 20 20 20 19 19 18 17 16 16 16 15 15 14 13 13 12 13 13 12 11 10 10 10 10 10 10 10 9 10 13 19 25 28 30 33
25 24 24 23 22 23 24 26 27 27 26 26 27 27 27 26 25 24 23 23 23 23 22 21 22 23 25 26 26 25 23 22 22 22 21 21 21 21 21 20 20 20 19 19 19 19 19 18 18 19 19 20 20 20 20 19 19 18 17 17 17 16 16 15 14 13 13 14 14 14 13 11 10 10 10 10 11 11 11 10 12 16 22 26 28 30
24 22 22 22 23 25 26 26 26 26 26 26 25 25 24 23 23 23 23 23 23 23 22 22 23 24 24 25 25 24 22 22 22 22 22 21 21 20 20 19 19 19 18 18 18 18 18 18 18 19 19 19 20 20 20 20 20 19 19 18 18 17 16 15 14 14 14 14 15 16 15 13 11 10 10 10 11 12 12 11 11 14 19 22 26 28
23 21 21 22 24 26 27 26 25 24 24 25 24 23 22 22 22 22 23 22 22 22 22 23 23 23 23 23 23 22 21 21 22 22 21 20 20 19 19 18 18 18 18 18 18 18 19 19 19 19 19 20 20 20 20 20 20 20 19 19 18 18 17 16 15 15 15 15 16 16 17 16 14 12 10 10 10 12 13 12 12 13 17 21 25 27
21 22 23 24 25 26 26 25 24 23 23 23 23 22 22 21 21 21 21 22 22 22 23 23 23 22 22 21 21 20 21 22 22 21 20 19 18 18 17 17 17 17 18 18 19 19 20 20 20 20 20 20 20 20 20 20 20 20 20 19 19 18 17 16 16 15 15 16 16 17 17 18 16 14 12 10 10 11 13 13 12 13 16 20 23 24
22 25 26 25 25 25 25 24 23 22 21 21 21 22 22 22 21 21 21 21 21 21 21 22 21 21 20 20 20 21 22 22 22 21 20 19 18 17 17 17 17 18 19 19 20 20 21 21 21 21 20 20 20 20 20 20 19 19 19 19 19 18 17 17 16 16 16 16 16 17 18 18 18 17 14 12 11 11 13 13 13 13 15 19 21 21
23 25 26 25 24 23 23 23 22 21 20 20 20 20 21 21 21 21 20 19 19 19 19 20 20 21 20 20 20 21 21 21 20 20 19 18 17 17 17 17 18 19 20 21 21 21 21 21 21 21 20 20 19 19 19 19 19 19 18 18 18 18 17 17 16 16 16 16 16 16 17 18 19 18 17 15 13 12 13 14 14 13 13 17 20 20
23 23 24 24 23 22 21 21 21 21 20 19 19 19 18 19 19 20 20 19 19 18 18 18 19 20 21 20 20 20 20 20 19 18 17 17 17 17 17 18 19 21 21 22 22 21 21 20 20 20 19 19 19 18 18 18 18 18 17 17 17 17 17 16 16 15 15 16 16 16 17 18 19 19 19 17 15 14 13 14 15 14 14 15 18 19
22 23 22 22 22 21 20 20 20 20 20 19 19 18 17 16 17 17 18 19 20 19 18 18 19 20 21 21 21 21 20 20 20 19 17 17 16 17 18 19 20 21 22 22 21 21 20 19 18 18 18 18 17 17 17 17 16 16 16 16 16 16 16 16 15 15 15 15 15 16 16 17 19 20 20 19 17 15 15 15 15 15 14 15 17 19
21 21 21 20 20 20 19 19 20 20 19 18 17 16 16 16 16 16 17 18 19 20 20 19 19 19 20 21 21 21 21 20 19 19 19 18 18 18 19 21 22 23 23 23 23 22 20 19 18 17 16 16 16 16 16 15 15 15 14 14 14 14 15 15 15 15 15 15 15 15 16 17 18 19 20 20 19 17 16 16 16 16 15 15 16 19
21 20 19 19 19 19 18 19 19 18 17 16 14 14 15 16 17 17 17 18 19 20 20 20 20 20 20 20 20 21 21 20 19 19 18 18 19 19 20 21 22 23 24 25 25 24 22 21 19 18 16 16 15 15 15 14 14 13 13 13 12 13 13 13 14 14 15 15 15 15 16 16 17 19 19 20 19 19 18 17 17 17 16 15 16 19
19 18 18 17 17 18 18 17 17 16 16 16 15 16 17 18 18 18 18 18 19 20 20 20 20 20 19 18 18 18 18 18 18 18 18 18 18 19 19 20 21 22 24 25 26 26 24 22 21 19 17 16 15 14 13 12 12 11 11 11 11 11 12 12 13 14 14 14 15 15 15 16 17 18 19 19 20 20 19 19 18 18 17 16 16 19
16 15 14 13 15 16 17 17 17 16 17 17 18 18 19 19 18 18 17 18 19 20 20 20 20 20 18 17 15 15 15 16 17 17 18 18 18 18 17 19 21 22 24 24 26 27 25 23 21 20 17 14 12 11 10 11 11 11 12 12 12 12 12 12 13 14 14 15 15 15 15 16 16 17 18 19 20 20 20 20 19 19 18 17 16 18
16 15 13 12 14 17 17 17 17 17 18 19 19 19 19 18 18 18 17 18 18 18 17 17 16 16 15 15 13 12 13 15 16 17 18 19 18 17 16 18 20 23 24 24 25 26 25 23 20 17 15 13 12 11 11 12 13 13 14 14 14 14 14 14 14 15 15 15 16 16 16 16 17 18 18 19 20 21 21 21 20 20 19 17 17 18
17 16 14 14 15 17 19 19 18 19 19 19 19 19 19 18 18 18 18 17 17 16 15 13 9 6 9 13 14 12 13 14 16 17 19 19 19 18 17 18 20 22 24 24 24 24 23 21 18 15 14 14 13 13 14 15 15 16 16 16 16 16 16 16 16 16 16 17 17 17 17 18 18 18 19 20 21 21 22 21 21 20 20 18 17 18
17 17 16 16 16 18 19 19 19 19 19 19 19 20 19 18 18 18 17 17 16 15 14 13 10 6 4 7 12 14 13 14 15 17 19 20 21 20 18 19 20 21 23 23 23 22 20 17 16 16 16 17 17 18 19 19 18 18 17 17 17 17 17 17 17 17 18 18 18 18 19 19 19 19 20 20 21 22 22 22 21 21 20 19 18 18
17 18 17 17 18 19 20 19 18 18 18 18 19 19 19 19 18 17 17 17 17 16 15 13 12 12 10 12 14 16 14 13 14 16 18 21 22 22 20 19 19 20 21 21 20 19 17 17 18 19 20 21 22 22 21 20 19 18 17 17 17 17 17 18 18 18 18 19 19 19 19 20 20 20 21 21 22 22 23 23 22 21 21 20 19 18
18 19 19 19 20 20 20 20 19 19 19 20 20 20 19 19 18 18 18 18 18 18 17 15 14 14 15 16 16 15 13 13 14 16 18 21 24 23 21 19 18 19 20 20 19 18 18 20 23 24 24 23 22 21 21 20 19 18 18 18 18 18 18 18 18 19 19 19 20 20 20 21 21 21 21 22 22 23 23 23 23 22 22 21 19 19
19 20 21 20 20 19 19 21 21 20 21 21 20 20 20 19 19 19 18 18 18 18 17 15 15 15 15 15 14 14 14 14 14 16 19 21 23 23 20 18 17 18 19 20 20 20 21 23 24 25 24 23 22 21 21 21 20 20 20 19 19 19 19 19 19 19 19 20 20 20 21 21 21 22 22 22 22 23 24 24 24 23 23 22 21 20
20 21 22 22 22 22 23 23 24 23 23 22 21 20 20 20 19 19 19 18 17 16 15 14 14 15 15 15 16 18 18 16 15 15 17 16 19 22 20 17 16 18 19 20 21 21 21 21 23 23 24 23 23 23 22 22 22 21 21 20 19 19 19 18 19 19 19 20 20 20 21 21 22 22 22 22 23 23 24 25 25 24 24 23 22 21
22 23 24 24 24 23 24 24 24 24 23 23 22 22 22 21 20 19 18 15 13 13 13 14 16 18 19 20 21 20 19 16 15 14 13 10 14 19 19 17 16 18 19 20 20 20 19 20 22 24 25 25 25 24 24 23 22 21 20 19 19 18 18 18 18 18 19 20 20 20 21 21 21 22 22 23 23 23 24 25 25 25 24 24 23 22
22 23 24 24 23 22 22 22 22 22 21 21 22 23 22 19 17 16 15 15 17 19 21 23 23 22 22 21 19 18 16 15 14 13 12 11 14 18 18 17 16 17 19 20 19 19 20 21 23 25 27 27 26 25 24 22 21 19 18 18 17 17 16 16 16 16 17 18 19 20 20 21 21 22 22 23 23 23 24 24 25 25 25 25 24 23
22 23 23 23 23 23 23 23 23 23 22 21 20 18 17 18 19 20 21 22 22 21 20 18 17 17 18 18 17 16 16 15 14 13 12 12 14 18 19 17 16 17 19 19 19 18 19 22 26 28 29 29 27 24 22 20 18 17 16 15 15 14 13 13 13 14 16 17 18 19 20 20 21 21 22 22 23 23 24 25 25 25 25 25 25 24
22 22 23 23 24 24 24 24 24 23 23 23 22 22 22 22 21 21 20 19 17 15 14 12 11 13 16 17 16 16 16 14 13 13 12 11 13 16 18 17 16 16 18 19 19 19 20 23 26 29 29 28 26 22 20 17 15 14 13 12 12 13 14 16 16 17 17 18 18 19 20 20 21 21 22 22 23 24 24 25 25 26 26 26 26 25
21 22 22 23 23 22 22 22 22 22 22 21 21 21 21 21 20 18 16 13 11 10 10 8 7 10 14 14 14 15 15 13 12 12 12 12 13 15 17 16 14 14 16 19 20 20 20 22 24 25 26 26 23 20 16 14 12 12 12 13 15 16 18 19 19 19 19 19 20 21 21 22 22 22 22 23 23 24 25 26 26 26 26 26 26 26
19 20 20 20 20 20 20 20 20 20 20 20 20 20 20 19 17 14 12 10 10 10 11 8 7 7 7 8 12 16 15 14 13 13 14 13 12 13 15 14 12 13 16 19 21 21 20 20 22 24 24 22 19 16 14 13 12 13 15 16 17 17 18 19 20 21 21 21 22 22 23 23 24 24 23 24 24 25 26 26 26 26 26 26 26 27
19 19 19 19 19 19 19 19 19 19 19 19 19 18 18 18 16 14 13 13 12 11 11 10 10 8 7 11 15 16 16 15 15 14 13 12 11 12 13 12 12 13 15 17 19 19 18 18 18 19 18 16 15 14 14 14 16 17 19 19 19 18 17 17 19 20 21 22 22 23 24 25 25 25 25 25 25 26 27 27 27 26 26 26 26 27
21 20 20 20 20 19 20 20 20 19 18 18 18 17 17 17 16 16 16 15 13 12 11 12 12 11 11 11 11 10 11 12 11 9 8 8 8 10 12 12 13 13 13 12 11 11 13 14 14 12 11 12 13 15 17 19 21 22 23 22 20 17 15 15 16 17 19 21 22 23 24 25 26 27 27 27 27 27 27 27 27 27 26 26 26 26
21 20 20 20 21 21 21 21 20 20 19 18 18 17 16 16 16 17 17 16 14 13 13 12 12 12 12 7 4 3 3 8 8 6 6 7 9 11 13 13 13 13 11 8 5 4 7 8 9 10 10 13 16 19 22 23 24 24 23 21 19 17 14 12 12 13 16 18 20 21 22 24 26 27 28 28 29 28 28 28 28 27 27 25 25 25
20 19 19 19 20 20 20 20 20 20 20 19 19 18 17 16 16 17 17 16 16 15 15 14 14 14 13 10 8 6 6 11 12 11 10 10 11 13 13 12 12 12 11 10 7 5 4 3 8 14 16 18 20 22 23 23 23 22 21 20 19 17 15 12 11 12 14 16 18 20 21 23 25 27 28 29 30 30 30 29 29 28 27 26 25 25
19 19 19 19 19 19 19 19 19 19 19 19 19 19 18 17 17 16 16 17 17 17 16 16 15 14 14 14 14 14 16 17 17 15 14 13 13 13 13 12 12 12 12 11 11 10 7 6 12 18 21 21 20 20 21 21 21 20 19 18 18 17 15 14 14 15 15 16 18 19 21 23 24 26 28 29 30 31 31 31 31 30 29 28 27 26
19 19 19 19 19 19 19 19 19 19 18 18 18 17 17 17 17 17 17 17 18 18 18 18 16 15 15 14 15 17 19 19 17 15 14 14 13 12 12 12 12 11 11 11 11 11 11 13 14 16 17 20 21 20 20 19 19 19 17 16 16 17 17 18 19 19 18 18 18 19 21 22 24 26 28 29 31 32 33 33 33 33 32 31 29 28
19 19 19 18 18 18 18 18 18 18 18 17 17 17 17 18 18 18 18 18 19 19 19 19 19 18 17 16 15 16 18 19 17 14 13 14 14 13 13 13 12 12 11 10 10 9 9 13 15 15 14 17 19 20 19 17 17 17 16 16 17 18 20 21 21 21 20 18 18 19 20 21 23 25 27 30 31 33 34 34 34 35 35 35 33 31
19 19 18 18 18 17 17 17 17 17 17 17 18 18 19 19 19 19 20 19 19 19 19 20 20 21 21 20 19 19 20 20 19 17 15 16 16 16 15 14 14 13 11 11 11 10 8 11 14 15 14 12 13 16 18 17 16 16 16 17 19 21 22 23 22 21 20 19 19 19 20 20 22 23 26 29 32 33 35 35 36 36 37 38 38 36
18 18 18 18 18 17 17 17 17 17 17 18 19 19 20 20 20 21 21 21 21 21 21 21 21 21 22 23 23 23 24 24 23 22 21 20 20 19 17 16 16 15 13 13 12 12 11 9 10 12 12 10 9 12 16 18 18 18 19 20 21 22 23 23 22 20 19 20 20 20 19 19 20 22 24 27 30 31 33 34 35 36 38 39 41 40
17 18 18 19 18 18 18 18 18 17 17 18 19 20 21 21 22 22 21 21 22 22 22 22 22 22 22 22 24 25 26 27 27 26 25 25 24 23 20 19 19 18 17 15 15 14 12 8 7 7 7 10 13 16 18 19 18 18 19 21 22 23 23 22 20 17 17 17 18 18 18 19 20 21 22 24 26 27 29 30 32 34 37 39 41 42
17 18 18 19 19 19 18 19 19 18 19 19 20 21 21 21 21 21 21 21 21 21 21 21 21 22 23 23 23 24 24 25 26 26 26 26 26 25 23 21 20 19 19 19 18 16 14 11 8 7 6 8 13 17 20 19 18 18 20 21 22 21 20 17 14 13 14 15 15 16 17 18 19 20 21 23 24 25 26 28 30 33 35 36 38 40
17 18 18 19 19 19 19 19 20 20 20 21 20 20 20 19 19 19 20 20 20 20 20 20 21 21 21 21 22 22 23 24 24 24 24 25 26 26 25 23 21 20 20 19 19 18 17 15 15 15 15 12 13 16 18 19 19 19 18 17 17 16 16 15 16 17 18 18 17 17 17 18 19 20 21 23 24 25 27 28 29 31 34 34 34 34
17 17 18 19 20 20 20 21 21 21 21 20 20 19 19 18 18 18 18 18 18 18 18 19 19 19 20 20 21 21 22 22 22 21 22 22 23 24 25 24 23 22 20 19 19 19 19 18 17 18 18 18 18 19 20 20 21 20 18 17 17 18 19 21 22 22 21 20 20 20 19 18 19 20 22 23 25 27 28 28 28 30 32 34 34 32
16 17 19 20 20 21 21 22 22 21 20 19 19 18 18 17 17 17 17 17 17 17 17 17 17 18 18 19 19 19 19 19 19 19 19 19 20 21 23 24 23 22 20 20 19 19 19 19 18 18 19 18 18 17 19 21 22 21 19 18 19 20 21 22 20 18 15 16 17 17 18 19 19 21 22 24 25 27 28 29 29 30 32 33 34 34
17 18 19 20 21 21 21 21 21 20 20 19 18 18 18 17 17 17 16 16 16 17 17 17 17 17 17 17 18 18 18 18 17 17 17 17 18 19 20 21 22 22 22 20 19 18 19 19 19 20 20 19 18 17 18 21 22 21 20 19 18 16 12 14 14 12 11 13 14 15 16 18 19 21 22 23 25 26 28 30 31 32 33 34 34 34
18 19 19 20 20 20 21 20 20 20 20 19 18 18 18 18 17 17 16 16 16 17 17 17 17 16 16 16 16 17 17 17 17 16 16 16 16 16 17 19 20 21 22 22 20 18 18 18 19 20 20 19 18 19 20 21 22 22 21 20 19 18 15 15 16 17 17 17 16 16 16 18 18 20 21 23 25 27 29 30 31 32 33 34 34 35
19 19 19 19 20 20 20 20 20 20 20 19 19 19 18 18 18 17 17 17 17 17 17 16 16 14 13 14 15 16 16 17 17 17 16 15 14 14 15 16 18 19 21 23 23 21 19 18 19 20 20 19 19 20 21 22 22 22 22 21 20 20 21 21 20 20 19 19 18 18 18 18 18 19 20 23 26 28 29 30 30 31 31 33 34 35
18 19 19 19 19 19 19 20 20 20 20 20 19 19 19 19 18 17 17 17 17 17 17 16 14 12 12 13 14 15 15 15 16 16 17 17 16 15 15 16 16 18 20 22 24 25 24 22 21 20 19 18 19 21 22 23 22 21 22 21 20 19 20 20 21 21 20 19 19 19 19 18 18 19 21 24 26 28 29 30 30 31 32 33 34 35
19 18 18 19 19 19 19 20 20 20 20 20 20 20 19 19 19 18 17 17 17 17 16 16 14 13 13 13 14 14 13 14 15 16 17 17 17 17 16 17 17 17 19 21 23 25 27 27 26 24 20 18 17 19 22 24 23 22 22 21 19 18 18 19 20 20 19 19 19 19 19 18 18 20 23 25 25 25 27 29 31 32 33 34 35 35
18 18 18 18 19 19 19 19 20 20 20 20 21 21 20 20 19 18 17 17 17 16 16 15 14 14 13 14 14 14 13 13 14 15 16 17 18 18 18 18 18 18 19 20 21 23 25 27 28 28 26 22 19 18 20 21 21 21 21 20 18 18 18 20 20 20 20 20 21 21 20 19 19 21 23 23 23 24 26 28 30 32 34 35 35 34
18 18 17 18 18 18 19 19 19 19 19 20 21 22 21 21 20 18 17 17 17 16 15 14 14 14 13 14 14 14 14 14 14 15 16 16 17 18 18 19 19 19 19 19 20 20 21 23 25 28 30 29 25 21 20 20 20 19 19 18 18 17 18 20 21 21 20 21 22 23 23 22 21 21 22 22 23 25 28 28 29 31 34 35 35 35
18 17 17 18 18 18 18 19 19 19 19 20 21 21 22 21 21 19 18 17 16 15 15 14 14 14 13 14 14 15 14 14 14 15 15 16 16 17 17 18 18 17 16 16 15 15 15 16 19 22 26 29 29 26 22 19 19 18 18 17 17 17 18 19 20 21 21 21 22 24 25 24 23 22 23 23 25 26 28 28 28 30 32 34 35 35
18 18 18 18 18 18 18 18 18 18 19 19 20 21 21 21 21 20 19 17 16 16 15 15 14 14 13 14 15 15 15 15 14 14 15 16 16 16 16 16 16 14 12 10 9 8 6 6 8 11 16 22 25 27 26 21 18 17 16 17 17 17 17 18 19 20 21 22 22 23 24 24 23 24 25 25 25 24 24 25 27 28 31 33 34 35
Wind_Direction
294 295 297 299 301 303 304 306 309 311 311 312 313 314 315 316 315 315 315 315 314 313 313 312 311 311 311 311 311 312 312 312 311 309 307 304 302 300 298 297 295 295 295 295 296 297 297 295 293 290 289 290 292 293 294 293 292 292 293 294 294 294 295 298 303 308 310 312 314 316 316 317 314 305 293 281 269 249 233 230 228 227 227 226 224 221
295 296 297 299 300 302 303 306 308 310 311 311 312 313 314 314 314 315 316 315 315 313 313 312 311 311 311 311 311 311 311 311 310 308 306 304 302 300 298 296 295 295 294 293 294 294 292 290 288 285 285 286 289 292 294 295 294 293 293 293 292 292 291 293 297 300 302 300 301 304 309 313 312 307 297 280 268 253 233 224 223 224 225 223 222 221
296 297 298 299 301 302 303 306 308 310 310 310 310 310 311 312 312 313 314 314 313 312 311 311 310 310 309 310 310 310 310 310 309 307 306 304 302 300 299 297 296 294 293 292 291 290 288 287 285 284 284 286 290 293 296 296 295 294 293 292 291 289 288 289 291 293 294 292 291 292 297 305 310 311 305 288 273 259 237 221 216 219 222 222 221 219
295 296 298 301 303 304 304 306 308 309 309 309 308 308 309 309 310 310 311 311 311 311 310 309 308 308 308 308 309 309 309 308 308 307 306 305 303 301 300 297 295 294 293 291 290 288 287 286 285 285 287 289 291 294 295 295 294 292 291 291 290 288 286 286 286 286 287 287 286 285 287 293 300 307 307 295 280 265 248 228 215 213 216 219 219 218
293 296 300 304 305 305 305 306 308 309 309 308 307 306 307 307 308 309 309 310 309 309 308 307 307 306 306 306 307 308 307 307 307 307 306 305 303 302 300 297 295 294 293 291 290 289 288 288 288 289 291 291 291 291 292 292 291 289 289 288 288 286 285 283 280 280 281 282 282 281 281 283 288 296 302 299 285 270 260 243 224 212 211 213 215 215
294 298 302 305 305 304 305 306 307 308 308 307 306 306 306 307 307 308 308 309 308 308 307 306 306 305 304 304 305 305 304 305 306 306 306 305 304 302 301 299 297 295 294 292 292 291 291 292 292 292 291 290 288 288 288 288 287 286 286 285 285 284 283 279 276 274 274 275 276 277 277 277 279 284 291 294 286 276 269 256 238 220 210 210 212 213
298 302 304 304 303 303 304 304 305 306 306 306 306 307 307 307 307 307 307 307 307 306 306 305 305 304 304 303 303 303 304 305 306 307 307 306 305 304 302 301 299 297 296 295 294 295 295 294 293 292 289 287 286 285 285 284 283 282 282 281 281 281 279 276 273 271 270 269 270 271 272 273 274 275 278 282 283 280 273 264 250 231 216 211 210 211
303 304 304 304 304 304 303 303 303 304 303 303 305 307 308 309 308 307 306 306 306 306 306 306 305 304 303 303 303 304 304 306 307 307 307 307 306 305 304 303 302 300 299 298 297 297 296 294 293 291 288 286 284 283 282 280 279 278 277 277 277 277 276 273 270 268 266 264 264 265 267 268 269 270 270 272 275 276 274 269 261 244 225 214 211 210
302 303 304 304 304 304 304 302 302 303 303 302 303 305 307 308 309 309 308 308 307 307 307 307 306 304 303 303 304 304 304 304 304 304 304 305 305 305 305 305 304 302 301 300 299 297 295 293 291 289 287 285 283 281 279 277 275 274 273 273 273 273 272 270 268 266 263 261 259 259 261 263 265 265 265 265 267 269 270 271 268 258 238 221 213 210
301 302 303 303 303 302 301 300 301 303 304 302 301 302 303 305 308 310 310 309 309 308 307 306 304 304 305 305 305 304 304 302 301 299 299 299 301 302 303 304 304 303 303 302 301 298 295 293 290 287 285 283 282 280 277 275 273 271 270 270 270 270 269 267 266 264 261 259 256 255 256 258 260 261 261 261 262 263 264 267 268 264 252 232 218 212
303 303 302 302 301 299 297 296 298 301 303 303 302 301 301 302 306 309 310 309 309 309 307 304 302 302 304 305 305 304 303 302 301 300 299 299 300 301 303 304 304 305 307 307 306 303 299 295 291 287 284 281 279 278 276 274 271 269 267 267 267 267 266 266 265 264 262 259 256 254 253 253 255 256 257 258 259 260 261 263 265 265 258 241 225 216
302 301 300 298 298 298 297 297 298 300 303 304 304 304 304 304 306 306 306 305 306 307 306 305 302 301 301 302 303 303 303 301 300 301 302 304 305 306 307 308 310 311 313 313 311 309 306 302 297 291 286 281 278 275 275 273 271 268 267 265 264 263 262 262 263 264 263 260 257 254 252 250 251 252 254 256 257 258 259 260 262 263 262 249 233 221
297 295 295 294 295 296 297 298 300 302 303 303 304 304 304 305 306 304 301 300 300 302 304 304 302 301 300 300 300 301 301 300 300 302 304 305 307 309 311 312 313 314 315 315 314 312 310 308 303 296 288 282 276 273 271 269 268 267 265 263 262 260 259 259 259 260 260 259 257 254 252 250 249 250 252 254 256 258 258 259 260 261 263 255 240 225
292 292 292 292 293 294 295 297 298 299 299 300 300 300 301 302 303 302 299 297 298 300 301 301 300 300 301 300 299 300 302 302 303 304 305 306 308 310 312 313 312 312 313 313 312 311 311 309 304 298 290 282 276 271 268 267 267 268 269 269 267 264 261 258 258 259 259 257 256 254 253 250 248 247 249 252 255 257 257 258 258 260 262 258 244 228
291 292 292 292 292 293 294 295 295 295 295 296 297 298 299 299 299 299 298 297 298 300 301 299 299 299 300 300 300 303 306 306 306 306 306 306 307 310 313 312 311 311 310 309 308 308 310 308 304 299 293 286 280 276 274 275 276 277 277 275 273 269 264 259 257 257 257 255 254 254 252 249 246 245 246 249 252 254 256 256 257 259 260 258 247 230
295 295 293 292 292 293 293 292 292 292 293 294 295 296 296 296 295 295 295 295 297 299 300 300 300 301 301 302 303 307 310 310 308 307 307 306 306 309 312 312 310 309 308 306 305 305 307 306 303 299 294 289 284 281 280 280 280 279 278 276 273 269 265 261 258 255 254 254 253 251 250 247 244 242 242 245 248 251 253 254 255 257 258 256 247 233
299 297 294 293 292 292 292 291 290 289 291 292 292 291 291 289 289 290 290 291 293 295 296 298 298 299 302 304 306 309 312 311 310 309 307 305 305 307 310 310 308 305 305 303 301 301 302 301 299 295 291 288 286 284 282 281 281 280 277 275 272 268 265 261 257 254 252 252 250 249 247 244 242 240 240 241 244 247 249 251 253 255 256 254 247 235
299 297 295 293 291 291 292 290 289 288 288 288 289 289 286 284 283 283 284 286 287 289 291 292 291 289 295 300 303 306 310 311 310 309 307 304 304 305 308 309 305 302 300 298 297 297 296 293 290 288 287 286 285 284 283 282 282 280 277 275 272 269 266 262 257 254 252 251 250 248 246 244 242 240 239 240 241 244 246 248 250 252 254 253 247 238
297 296 293 292 291 290 290 288 286 286 286 286 287 287 287 284 281 280 279 281 282 282 283 284 284 285 286 289 295 300 306 310 311 310 307 304 303 304 307 307 304 299 295 293 293 293 290 288 286 286 286 286 286 286 285 285 283 281 279 276 273 270 267 263 259 255 251 250 249 248 246 243 241 240 240 240 241 242 244 245 247 248 250 251 247 240
295 293 290 289 289 289 287 285 285 284 284 284 284 283 283 282 281 280 277 278 278 277 277 277 278 280 282 285 290 297 305 314 316 312 306 302 300 301 304 305 302 297 294 291 290 290 289 289 289 290 290 290 289 289 288 287 285 283 280 277 274 271 267 263 259 255 252 249 248 247 245 243 242 240 239 240 240 241 243 244 244 245 246 247 245 241
291 289 288 286 286 285 285 286 285 282 281 280 279 278 279 279 279 278 275 276 276 275 275 273 274 278 282 286 291 297 306 313 314 309 304 300 297 298 301 302 301 296 293 291 290 291 291 292 294 294 294 293 292 291 290 289 287 285 282 278 275 271 267 263 259 255 253 250 248 247 246 244 242 241 240 240 240 241 242 243 243 243 244 244 244 241
286 286 287 285 282 281 282 282 282 281 279 276 273 272 273 274 275 276 276 276 275 275 275 276 279 285 290 293 296 298 301 304 304 301 299 296 294 295 298 301 301 296 292 291 292 294 294 294 294 294 293 292 292 291 291 291 289 287 284 280 275 271 267 263 259 256 253 251 249 248 246 245 243 241 240 240 240 241 243 243 244 243 243 244 243 242
284 285 286 285 282 279 279 278 279 279 278 273 268 265 266 267 269 272 276 279 283 288 291 293 294 294 294 293 294 295 296 297 296 293 291 287 288 292 297 302 302 297 292 292 294 296 296 294 292 292 293 294 294 294 294 293 292 289 285 280 275 271 266 262 259 256 254 252 250 249 247 246 244 243 241 240 240 242 243 244 245 244 244 244 244 243
289 289 288 288 288 287 287 287 288 288 286 282 276 272 270 273 278 285 293 298 300 300 299 298 296 294 292 292 292 293 294 294 291 285 279 278 283 288 294 300 301 297 292 292 294 297 297 295 293 294 296 297 298 298 298 296 294 289 284 279 274 270 266 263 261 258 256 254 252 250 249 247 245 244 243 241 241 242 243 245 245 245 245 245 245 245
295 294 295 296 298 300 300 301 302 303 303 301 300 301 301 301 301 300 300 299 297 296 295 295 294 292 293 295 294 293 292 291 285 275 268 273 280 285 291 297 297 295 292 293 296 298 298 296 295 296 298 299 301 302 301 299 295 289 283 277 273 272 273 273 271 268 264 259 255 252 250 248 246 245 244 243 242 242 244 245 246 245 245 245 245 245
299 299 300 302 303 304 304 304 304 305 306 306 307 308 308 307 304 300 296 293 293 295 297 297 294 291 293 294 292 291 291 289 282 271 263 270 280 286 291 294 293 292 292 295 298 300 298 296 295 296 297 300 303 305 305 301 296 289 284 281 281 280 278 275 271 268 263 259 255 252 250 248 247 246 245 244 244 243 244 245 245 245 245 244 245 245
303 303 304 305 306 306 305 305 306 306 306 306 304 303 304 303 300 296 292 293 300 306 303 297 291 290 291 290 288 287 289 288 282 273 269 272 278 284 288 291 292 292 296 299 300 299 296 292 290 292 295 300 305 309 309 305 298 291 286 283 280 277 272 266 262 258 255 253 252 250 249 248 248 247 247 246 245 245 244 245 245 245 245 245 245 245
307 308 309 309 309 309 309 309 309 309 308 307 304 303 302 302 301 299 298 305 311 307 295 287 284 287 288 287 288 288 289 286 281 276 273 271 272 277 282 288 293 299 303 303 302 298 292 286 286 289 294 302 309 313 313 309 301 292 287 284 281 277 272 266 261 257 254 252 250 249 249 249 249 249 248 248 247 246 246 245 245 246 246 246 246 246
313 313 312 312 313 312 312 313 313 312 310 308 305 304 304 305 305 304 303 306 305 297 286 282 281 282 284 288 290 290 287 283 280 276 271 265 265 271 280 289 297 303 307 307 306 303 296 289 287 290 296 303 309 311 310 305 299 295 294 294 292 288 280 271 263 258 256 253 252 251 250 251 251 250 250 249 248 247 246 245 245 246 247 246 246 246
320 318 316 315 315 315 314 314 314 313 311 309 307 306 306 306 304 302 300 299 294 286 281 280 279 280 284 289 291 289 286 283 284 281 272 263 266 276 286 292 296 300 305 309 310 308 303 298 294 293 297 303 306 304 302 301 300 300 302 302 300 295 286 275 266 260 257 255 254 253 252 252 252 252 251 250 249 248 247 245 245 246 247 246 245 244
320 318 316 315 315 315 314 314 313 312 311 310 310 309 307 305 302 298 296 291 285 279 277 277 277 278 280 284 288 286 284 286 289 292 287 279 279 283 288 291 292 293 295 297 303 313 309 306 303 303 305 306 304 302 301 302 303 305 307 307 305 301 295 286 275 267 260 257 256 255 253 253 252 252 252 251 250 249 247 246 245 245 244 243 241 241
319 316 314 314 313 313 312 311 310 310 310 310 310 310 308 305 300 296 292 286 281 276 274 274 275 275 275 273 272 272 274 280 282 284 286 284 281 281 283 283 284 286 285 278 274 282 299 307 305 305 306 305 303 302 302 303 304 306 307 306 304 302 302 298 291 280 269 262 258 255 254 253 252 252 251 251 251 250 248 246 244 243 241 238 236 237
318 316 315 315 314 313 312 310 310 309 309 308 308 308 308 305 302 297 292 288 283 278 274 274 274 274 273 271 269 269 272 275 278 279 279 276 276 278 279 277 278 281 283 276 269 267 270 278 294 299 302 302 301 300 301 301 302 304 305 302 298 297 299 298 293 285 277 268 261 256 253 252 251 251 250 250 250 249 248 246 243 241 238 234 232 233
319 318 317 317 316 315 314 312 311 309 308 308 307 306 305 304 302 299 295 291 287 281 276 272 271 271 273 272 271 271 272 274 276 276 273 269 269 273 276 275 275 278 282 280 274 270 270 275 283 293 298 300 299 297 297 298 300 302 303 298 292 289 291 293 293 289 284 276 266 257 252 250 249 249 248 247 247 247 246 244 242 239 235 231 229 228
320 319 319 319 319 318 317 315 313 311 310 308 307 306 305 304 303 301 298 295 290 285 280 274 270 268 268 270 272 273 274 275 276 275 271 265 266 271 274 273 273 275 277 278 277 276 276 278 281 286 293 297 297 296 294 295 298 300 299 292 286 285 288 291 292 291 288 280 269 258 251 247 246 245 245 244 244 244 243 242 240 238 235 232 229 226
321 320 321 321 322 321 320 317 315 313 311 310 309 309 308 306 305 303 301 298 294 289 284 279 275 271 268 266 266 269 273 276 277 275 270 265 264 267 270 271 271 271 272 273 273 274 277 280 282 284 287 290 294 295 295 296 298 296 292 288 285 286 288 290 290 288 284 277 269 260 250 244 241 241 241 242 242 242 242 241 240 238 236 234 232 228
322 321 322 322 322 322 321 320 317 315 312 311 311 311 310 308 307 305 303 301 298 295 291 286 281 277 273 270 268 268 271 275 276 275 272 267 264 263 264 267 268 267 265 266 269 271 274 279 282 283 282 281 283 289 293 297 297 294 290 288 287 288 289 290 289 285 278 273 268 261 251 243 239 238 239 240 241 241 241 241 240 238 237 236 234 231
323 322 322 322 323 322 322 321 319 317 314 311 311 310 310 309 308 306 304 303 301 298 295 291 287 284 281 277 275 274 274 276 276 276 273 270 266 262 260 263 265 263 260 259 261 265 268 272 277 279 278 278 279 281 286 291 293 292 291 291 290 289 288 290 290 285 276 272 270 265 256 246 239 236 236 237 238 238 237 237 236 235 235 234 234 233
323 321 321 322 322 322 321 320 318 316 314 312 310 310 309 309 308 307 305 304 302 300 297 293 290 288 287 285 282 279 277 276 276 275 274 271 267 263 260 260 261 260 259 256 256 256 258 260 264 269 275 281 281 282 283 285 286 289 292 294 292 289 287 287 286 280 274 270 269 266 261 249 240 234 233 232 231 230 229 228 227 226 225 225 226 228
323 321 320 321 321 320 319 317 316 315 314 313 312 311 310 309 308 307 307 305 304 302 299 297 293 291 289 287 285 283 281 279 278 276 274 271 268 264 260 258 257 258 258 257 254 252 251 253 257 262 266 271 277 281 283 282 282 285 290 293 291 287 284 283 280 277 273 267 262 259 256 248 240 234 230 229 227 226 224 222 220 218 217 214 214 217
321 320 319 320 320 319 318 317 316 316 316 315 314 313 311 310 308 308 308 307 306 304 302 300 297 295 293 290 288 287 285 285 283 281 278 275 272 268 263 259 257 257 258 256 254 252 249 250 254 258 261 265 270 274 277 277 278 279 281 280 281 283 285 283 280 277 274 268 263 257 252 247 241 235 231 228 228 227 226 222 218 214 213 212 210 209
320 319 319 320 319 318 317 318 319 320 319 319 317 315 313 311 310 309 309 308 307 306 305 304 301 299 298 295 294 292 291 290 289 287 284 281 277 272 266 262 259 257 256 256 255 253 251 251 252 255 258 261 264 269 273 274 275 274 271 270 275 281 285 282 279 276 272 269 267 263 255 247 240 235 231 229 228 228 228 225 220 215 211 210 209 209
317 317 318 319 319 318 319 320 322 323 324 323 320 317 315 314 313 312 310 308 307 306 306 306 304 302 300 299 298 298 297 297 296 292 288 285 281 277 271 267 263 260 257 255 255 255 255 253 252 253 255 257 259 263 268 272 274 272 268 265 266 271 276 277 278 278 275 272 269 264 256 247 240 234 231 229 228 227 226 224 221 216 212 209 208 208
315 317 319 321 321 322 323 323 324 325 325 323 321 319 318 318 317 315 312 309 308 307 308 307 306 304 300 299 299 301 301 303 302 299 295 292 287 281 275 271 268 265 260 256 255 257 258 257 255 254 254 254 255 258 262 267 269 269 266 262 258 255 257 268 277 280 279 274 268 261 254 247 241 236 232 230 228 226 223 220 217 214 212 210 208 207
317 319 321 324 326 326 326 324 324 325 325 324 323 322 321 321 320 318 315 312 310 309 309 309 308 306 303 301 302 304 304 305 306 305 304 302 296 288 281 276 272 269 265 261 258 257 257 258 258 257 256 254 253 254 257 260 263 265 263 260 256 253 255 263 269 272 270 268 264 259 253 246 240 235 231 229 226 223 220 216 213 210 208 207 207 207
320 321 323 326 327 327 326 325 325 326 326 327 326 325 324 324 323 320 317 314 312 310 310 310 308 305 303 303 304 305 306 306 307 307 307 307 305 300 294 288 282 277 272 267 264 260 257 255 255 257 257 255 253 252 251 253 255 258 259 258 257 258 261 265 266 265 264 262 261 258 253 246 239 233 228 226 224 220 216 213 209 206 204 204 204 205
321 322 324 326 327 327 326 327 328 329 329 328 328 328 327 327 326 323 319 317 314 312 311 311 309 305 302 302 303 304 304 304 305 307 308 308 307 305 303 299 294 288 281 275 271 266 261 257 253 251 249 249 251 251 250 249 248 250 254 258 261 263 266 267 267 266 264 261 258 256 252 245 238 232 227 225 222 218 214 211 209 206 204 203 202 203
321 322 324 327 328 328 328 328 329 329 329 330 330 330 330 329 328 325 321 318 316 314 313 312 310 307 304 303 303 302 301 301 302 304 306 307 307 307 306 305 302 298 293 288 281 274 268 262 256 249 243 240 243 247 249 247 246 247 251 257 263 266 269 270 270 269 266 261 257 252 247 240 234 229 225 224 221 218 213 210 208 206 204 203 202 202
322 323 325 328 329 329 329 329 329 329 329 329 330 331 330 330 329 326 322 318 316 314 313 311 310 309 307 306 305 305 303 302 302 303 304 305 306 307 307 307 306 304 302 298 292 285 277 270 262 253 245 238 237 241 247 250 250 251 254 258 261 264 267 270 271 270 266 261 256 250 244 240 235 230 225 221 219 217 214 209 206 204 203 203 202 202
324 325 327 329 330 330 329 329 329 329 328 328 329 330 330 330 329 327 324 320 317 315 313 311 310 309 308 308 308 309 309 307 306 304 304 305 305 305 306 308 308 308 306 303 298 291 282 271 264 258 251 242 237 237 241 249 254 257 258 258 259 260 263 267 269 269 265 261 255 250 244 241 238 234 228 223 219 215 212 208 205 203 202 201 201 202
327 328 329 331 331 331 330 329 328 328 328 328 328 329 330 330 330 329 327 325 322 319 316 314 311 310 308 309 310 311 312 311 308 306 304 305 305 305 305 306 307 308 308 306 304 298 284 271 264 259 254 247 241 237 236 241 249 255 257 257 256 257 260 264 268 269 267 262 256 250 244 238 234 230 226 222 217 212 209 207 205 202 199 199 199 200